Time,TemperatureF,DewpointF,PressureIn,WindDirection,WindDirectionDegrees,WindSpeedMPH,WindSpeedGustMPH,Humidity,HourlyPrecipIn,Conditions,Clouds,dailyrainin,SoftwareType,DateUTC
2013-02-23 00:01:00,28.0,24.0,29.95,WSW,241,7.0,14.0,86,0.00,,,0.01,,2013-02-23 06:01:00,
2013-02-23 00:11:00,28.0,24.0,29.95,WSW,241,7.0,14.0,86,0.00,,,0.01,,2013-02-23 06:11:00,
2013-02-23 00:22:00,28.0,24.0,29.95,West,269,8.0,14.0,85,0.00,,,0.01,,2013-02-23 06:22:00,
2013-02-23 00:31:00,28.0,24.0,29.95,West,265,12.0,16.0,83,0.00,,,0.01,,2013-02-23 06:31:00,
2013-02-23 00:41:00,28.0,24.0,29.95,West,265,12.0,16.0,83,0.00,,,0.01,,2013-02-23 06:41:00,
2013-02-23 00:51:00,27.0,23.0,29.95,WSW,246,10.0,16.0,83,0.00,,,0.01,,2013-02-23 06:51:00,
2013-02-23 01:01:00,27.0,23.0,29.95,WSW,248,9.0,17.0,83,0.00,,,0.01,,2013-02-23 07:01:00,
2013-02-23 01:11:00,27.0,23.0,29.95,WSW,248,9.0,17.0,83,0.00,,,0.01,,2013-02-23 07:11:00,
2013-02-23 01:21:00,26.0,22.0,29.95,West,273,7.0,11.0,84,0.00,,,0.01,,2013-02-23 07:21:00,
2013-02-23 01:32:00,25.0,21.0,29.96,West,268,7.0,9.0,86,0.00,,,0.01,,2013-02-23 07:32:00,
2013-02-23 01:41:00,25.0,21.0,29.96,West,268,7.0,9.0,86,0.00,,,0.01,,2013-02-23 07:41:00,
2013-02-23 01:51:00,25.0,21.0,29.96,West,265,5.0,9.0,86,0.00,,,0.01,,2013-02-23 07:51:00,
2013-02-23 02:01:00,24.0,21.0,29.96,West,264,7.0,12.0,88,0.00,,,0.01,,2013-02-23 08:01:00,
2013-02-23 02:11:00,24.0,21.0,29.96,West,264,7.0,12.0,88,0.00,,,0.01,,2013-02-23 08:11:00,
2013-02-23 02:21:00,25.0,22.0,29.95,West,281,7.0,12.0,87,0.00,,,0.01,,2013-02-23 08:21:00,
2013-02-23 02:31:00,26.0,22.0,29.95,West,276,7.0,12.0,86,0.00,,,0.01,,2013-02-23 08:31:00,
2013-02-23 02:42:00,26.0,22.0,29.95,West,276,7.0,12.0,86,0.00,,,0.01,,2013-02-23 08:42:00,
2013-02-23 02:52:00,26.0,22.0,29.95,West,272,7.0,12.0,85,0.00,,,0.01,,2013-02-23 08:52:00,
2013-02-23 03:01:00,26.0,22.0,29.95,WSW,246,8.0,12.0,85,0.00,,,0.01,,2013-02-23 09:01:00,
2013-02-23 03:11:00,26.0,22.0,29.95,WSW,246,8.0,12.0,85,0.00,,,0.01,,2013-02-23 09:11:00,
2013-02-23 03:21:00,26.0,22.0,29.95,WSW,254,6.0,14.0,84,0.00,,,0.01,,2013-02-23 09:21:00,
2013-02-23 03:31:00,26.0,22.0,29.95,SW,227,8.0,13.0,83,0.00,,,0.01,,2013-02-23 09:31:00,
2013-02-23 03:41:00,26.0,22.0,29.95,SW,227,8.0,13.0,83,0.00,,,0.01,,2013-02-23 09:41:00,
2013-02-23 03:51:00,26.0,21.0,29.95,WSW,239,7.0,11.0,82,0.00,,,0.01,,2013-02-23 09:51:00,
2013-02-23 04:01:00,26.0,21.0,29.94,West,259,7.0,13.0,81,0.00,,,0.01,,2013-02-23 10:01:00,
2013-02-23 04:11:00,26.0,21.0,29.94,West,259,7.0,13.0,81,0.00,,,0.01,,2013-02-23 10:11:00,
2013-02-23 04:21:00,26.0,21.0,29.94,West,259,7.0,13.0,81,0.00,,,0.01,,2013-02-23 10:21:00,
2013-02-23 04:32:00,25.0,20.0,29.96,SW,235,7.0,13.0,80,0.00,,,0.01,,2013-02-23 10:32:00,
2013-02-23 04:42:00,25.0,20.0,29.96,SW,235,7.0,13.0,80,0.00,,,0.01,,2013-02-23 10:42:00,
2013-02-23 04:52:00,25.0,20.0,29.96,SW,236,5.0,11.0,80,0.00,,,0.01,,2013-02-23 10:52:00,
2013-02-23 05:02:00,25.0,20.0,29.96,WSW,249,4.0,9.0,80,0.00,,,0.01,,2013-02-23 11:02:00,
2013-02-23 05:11:00,25.0,20.0,29.96,WSW,249,4.0,9.0,80,0.00,,,0.01,,2013-02-23 11:11:00,
2013-02-23 05:21:00,25.0,20.0,29.96,WSW,249,4.0,9.0,80,0.00,,,0.01,,2013-02-23 11:21:00,
2013-02-23 05:32:00,25.0,20.0,29.96,WSW,240,4.0,9.0,81,0.00,,,0.01,,2013-02-23 11:32:00,
2013-02-23 05:41:00,25.0,20.0,29.96,WSW,240,4.0,9.0,81,0.00,,,0.01,,2013-02-23 11:41:00,
2013-02-23 05:52:00,25.0,20.0,29.96,West,269,5.0,8.0,81,0.00,,,0.01,,2013-02-23 11:52:00,
2013-02-23 06:02:00,25.0,20.0,29.97,West,269,7.0,10.0,82,0.00,,,0.01,,2013-02-23 12:02:00,
2013-02-23 06:11:00,25.0,20.0,29.97,West,269,7.0,10.0,82,0.00,,,0.01,,2013-02-23 12:11:00,
2013-02-23 06:21:00,25.0,20.0,29.97,West,278,4.0,10.0,82,0.00,,,0.01,,2013-02-23 12:21:00,
2013-02-23 06:32:00,25.0,20.0,29.97,WNW,284,5.0,11.0,82,0.00,,,0.01,,2013-02-23 12:32:00,
2013-02-23 06:42:00,25.0,20.0,29.97,WNW,284,5.0,11.0,82,0.00,,,0.01,,2013-02-23 12:42:00,
2013-02-23 06:52:00,25.0,20.0,29.97,WSW,258,5.0,9.0,82,0.00,,,0.01,,2013-02-23 12:52:00,
2013-02-23 07:01:00,25.0,20.0,29.97,WSW,254,4.0,8.0,82,0.00,,,0.01,,2013-02-23 13:01:00,
2013-02-23 07:11:00,25.0,20.0,29.97,WSW,254,4.0,8.0,82,0.00,,,0.01,,2013-02-23 13:11:00,
2013-02-23 07:22:00,25.0,20.0,29.97,West,262,4.0,8.0,82,0.00,,,0.01,,2013-02-23 13:22:00,
2013-02-23 07:32:00,25.0,20.0,29.97,West,269,7.0,10.0,82,0.00,,,0.01,,2013-02-23 13:32:00,
2013-02-23 07:42:00,25.0,20.0,29.97,West,269,7.0,10.0,82,0.00,,,0.01,,2013-02-23 13:42:00,
2013-02-23 07:52:00,25.0,20.0,29.96,West,270,7.0,10.0,82,0.00,,,0.01,,2013-02-23 13:52:00,
2013-02-23 08:02:00,25.0,20.0,29.96,West,279,8.0,12.0,82,0.00,,,0.01,,2013-02-23 14:02:00,
2013-02-23 08:11:00,25.0,20.0,29.96,West,279,8.0,12.0,82,0.00,,,0.01,,2013-02-23 14:11:00,
2013-02-23 08:21:00,25.0,20.0,29.97,West,263,7.0,10.0,81,0.00,,,0.01,,2013-02-23 14:21:00,
2013-02-23 08:32:00,25.0,20.0,29.97,West,275,8.0,12.0,81,0.00,,,0.01,,2013-02-23 14:32:00,
2013-02-23 08:42:00,25.0,20.0,29.97,West,275,8.0,12.0,81,0.00,,,0.01,,2013-02-23 14:42:00,
2013-02-23 08:52:00,25.0,20.0,29.97,West,273,7.0,12.0,80,0.00,,,0.01,,2013-02-23 14:52:00,
2013-02-23 09:02:00,26.0,20.0,29.97,West,266,9.0,15.0,79,0.00,,,0.01,,2013-02-23 15:02:00,
2013-02-23 09:11:00,26.0,20.0,29.97,West,266,9.0,15.0,79,0.00,,,0.01,,2013-02-23 15:11:00,
2013-02-23 09:22:00,26.0,21.0,29.98,West,261,8.0,14.0,81,0.00,,,0.01,,2013-02-23 15:22:00,
2013-02-23 09:32:00,26.0,21.0,29.97,WNW,283,6.0,10.0,82,0.00,,,0.01,,2013-02-23 15:32:00,
2013-02-23 09:41:00,26.0,21.0,29.97,WNW,283,6.0,10.0,82,0.00,,,0.01,,2013-02-23 15:41:00,
2013-02-23 09:51:00,26.0,22.0,29.97,West,268,6.0,10.0,83,0.00,,,0.01,,2013-02-23 15:51:00,
2013-02-23 10:01:00,26.0,22.0,29.97,West,268,6.0,10.0,83,0.00,,,0.01,,2013-02-23 16:01:00,
2013-02-23 10:11:00,26.0,22.0,29.97,West,268,6.0,10.0,83,0.00,,,0.01,,2013-02-23 16:11:00,
2013-02-23 10:21:00,26.0,22.0,29.97,West,268,6.0,10.0,83,0.00,,,0.01,,2013-02-23 16:21:00,
2013-02-23 10:32:00,26.0,21.0,29.98,WNW,283,8.0,14.0,81,0.00,,,0.01,,2013-02-23 16:32:00,
2013-02-23 10:42:00,26.0,21.0,29.98,WNW,283,8.0,14.0,81,0.00,,,0.01,,2013-02-23 16:42:00,
2013-02-23 10:52:00,26.0,21.0,29.98,WSW,242,7.0,12.0,80,0.00,,,0.01,,2013-02-23 16:52:00,
2013-02-23 11:01:00,26.0,20.0,29.98,WSW,252,7.0,15.0,77,0.00,,,0.01,,2013-02-23 17:01:00,
2013-02-23 11:11:00,26.0,20.0,29.98,WSW,252,7.0,15.0,77,0.00,,,0.01,,2013-02-23 17:11:00,
2013-02-23 11:21:00,27.0,20.0,29.97,West,269,8.0,16.0,75,0.00,,,0.01,,2013-02-23 17:21:00,
2013-02-23 11:32:00,27.0,21.0,29.97,West,272,7.0,12.0,78,0.00,,,0.00,,2013-02-23 17:32:00,
2013-02-23 11:42:00,27.0,21.0,29.97,West,272,7.0,12.0,78,0.00,,,0.00,,2013-02-23 17:42:00,
2013-02-23 11:52:00,27.0,21.0,29.97,SW,232,7.0,12.0,78,0.00,,,0.00,,2013-02-23 17:52:00,
2013-02-23 12:01:00,27.0,22.0,29.97,West,279,6.0,10.0,80,0.00,,,0.00,,2013-02-23 18:01:00,
2013-02-23 12:12:00,27.0,22.0,29.97,West,279,6.0,10.0,80,0.00,,,0.00,,2013-02-23 18:12:00,
2013-02-23 12:22:00,27.0,21.0,29.96,WSW,242,8.0,11.0,79,0.00,,,0.00,,2013-02-23 18:22:00,
2013-02-23 12:32:00,27.0,21.0,29.96,WNW,287,7.0,11.0,78,0.00,,,0.00,,2013-02-23 18:32:00,
2013-02-23 12:42:00,27.0,21.0,29.96,WNW,287,7.0,11.0,78,0.00,,,0.00,,2013-02-23 18:42:00,
2013-02-23 12:51:00,27.0,21.0,29.96,West,267,9.0,12.0,78,0.00,,,0.00,,2013-02-23 18:51:00,
2013-02-23 13:01:00,27.0,21.0,29.96,West,267,9.0,12.0,78,0.00,,,0.00,,2013-02-23 19:01:00,
2013-02-23 13:11:00,27.0,21.0,29.96,West,267,9.0,12.0,78,0.00,,,0.00,,2013-02-23 19:11:00,
2013-02-23 13:21:00,27.0,21.0,29.95,West,273,7.0,14.0,79,0.00,,,0.00,,2013-02-23 19:21:00,
2013-02-23 13:32:00,27.0,21.0,29.95,West,273,7.0,14.0,79,0.00,,,0.00,,2013-02-23 19:32:00,
2013-02-23 13:41:00,27.0,21.0,29.95,West,273,7.0,14.0,79,0.00,,,0.00,,2013-02-23 19:41:00,
2013-02-23 13:52:00,28.0,23.0,29.95,WSW,254,7.0,11.0,80,0.00,,,0.00,,2013-02-23 19:52:00,
2013-02-23 14:01:00,27.0,22.0,29.96,West,265,8.0,12.0,80,0.00,,,0.00,,2013-02-23 20:01:00,
2013-02-23 14:11:00,27.0,22.0,29.96,West,265,8.0,12.0,80,0.00,,,0.00,,2013-02-23 20:11:00,
2013-02-23 14:21:00,27.0,22.0,29.96,West,265,8.0,12.0,80,0.00,,,0.00,,2013-02-23 20:21:00,
2013-02-23 14:32:00,28.0,23.0,29.96,West,277,6.0,11.0,80,0.00,,,0.00,,2013-02-23 20:32:00,
2013-02-23 14:41:00,28.0,23.0,29.96,West,277,6.0,11.0,80,0.00,,,0.00,,2013-02-23 20:41:00,
2013-02-23 14:53:00,28.0,22.0,29.96,WSW,242,5.0,11.0,78,0.00,,,0.00,,2013-02-23 20:53:00,
2013-02-23 15:01:00,28.0,22.0,29.96,West,261,7.0,14.0,79,0.00,,,0.00,,2013-02-23 21:01:00,
2013-02-23 15:11:00,28.0,22.0,29.96,West,261,7.0,14.0,79,0.00,,,0.00,,2013-02-23 21:11:00,
2013-02-23 15:22:00,28.0,23.0,29.95,West,279,6.0,13.0,80,0.00,,,0.00,,2013-02-23 21:22:00,
2013-02-23 15:32:00,28.0,22.0,29.95,WNW,295,8.0,12.0,78,0.00,,,0.00,,2013-02-23 21:32:00,
2013-02-23 15:41:00,28.0,22.0,29.95,WNW,295,8.0,12.0,78,0.00,,,0.00,,2013-02-23 21:41:00,
2013-02-23 15:51:00,29.0,23.0,29.94,West,277,7.0,14.0,78,0.00,,,0.00,,2013-02-23 21:51:00,
2013-02-23 16:01:00,29.0,23.0,29.95,WSW,254,5.0,10.0,78,0.00,,,0.00,,2013-02-23 22:01:00,
2013-02-23 16:11:00,29.0,23.0,29.95,West,276,6.0,11.0,78,0.00,,,0.00,,2013-02-23 22:11:00,
2013-02-23 16:21:00,29.0,23.0,29.95,West,276,6.0,11.0,78,0.00,,,0.00,,2013-02-23 22:21:00,
2013-02-23 16:31:00,29.0,23.0,29.95,West,265,6.0,9.0,79,0.00,,,0.00,,2013-02-23 22:31:00,
2013-02-23 16:42:00,29.0,23.0,29.95,West,265,6.0,9.0,79,0.00,,,0.00,,2013-02-23 22:42:00,
2013-02-23 16:51:00,29.0,23.0,29.95,West,270,6.0,11.0,78,0.00,,,0.00,,2013-02-23 22:51:00,
2013-02-23 17:01:00,29.0,23.0,29.95,West,275,7.0,12.0,79,0.00,,,0.00,,2013-02-23 23:01:00,
2013-02-23 17:11:00,29.0,23.0,29.95,West,275,7.0,12.0,79,0.00,,,0.00,,2013-02-23 23:11:00,
2013-02-23 17:21:00,29.0,23.0,29.96,West,265,5.0,8.0,79,0.00,,,0.00,,2013-02-23 23:21:00,
2013-02-23 17:31:00,28.0,22.0,29.96,West,278,6.0,9.0,79,0.00,,,0.00,,2013-02-23 23:31:00,
2013-02-23 17:42:00,28.0,22.0,29.96,West,278,6.0,9.0,79,0.00,,,0.00,,2013-02-23 23:42:00,
2013-02-23 17:52:00,28.0,23.0,29.97,West,261,5.0,11.0,80,0.00,,,0.00,,2013-02-23 23:52:00,
2013-02-23 18:01:00,27.0,22.0,29.97,West,281,5.0,9.0,82,0.00,,,0.00,,2013-02-24 00:01:00,
2013-02-23 18:11:00,27.0,22.0,29.97,West,281,5.0,9.0,82,0.00,,,0.00,,2013-02-24 00:11:00,
2013-02-23 18:22:00,27.0,22.0,29.97,West,269,3.0,7.0,82,0.00,,,0.00,,2013-02-24 00:22:00,
2013-02-23 18:32:00,27.0,22.0,29.97,West,269,3.0,7.0,82,0.00,,,0.00,,2013-02-24 00:32:00,
2013-02-23 18:42:00,27.0,22.0,29.97,West,269,3.0,7.0,82,0.00,,,0.00,,2013-02-24 00:42:00,
2013-02-23 18:52:00,26.0,21.0,29.98,West,263,3.0,7.0,82,0.00,,,0.00,,2013-02-24 00:52:00,
2013-02-23 19:01:00,26.0,21.0,29.98,West,263,3.0,7.0,82,0.00,,,0.00,,2013-02-24 01:01:00,
2013-02-23 19:11:00,26.0,21.0,29.98,West,263,3.0,7.0,82,0.00,,,0.00,,2013-02-24 01:11:00,
2013-02-23 19:22:00,25.0,21.0,29.98,West,272,3.0,5.0,83,0.00,,,0.00,,2013-02-24 01:22:00,
2013-02-23 19:31:00,25.0,21.0,29.98,WSW,250,2.0,6.0,83,0.00,,,0.00,,2013-02-24 01:31:00,
2013-02-23 19:42:00,25.0,21.0,29.98,WSW,250,2.0,6.0,83,0.00,,,0.00,,2013-02-24 01:42:00,
2013-02-23 19:51:00,25.0,21.0,29.98,West,269,3.0,7.0,83,0.00,,,0.00,,2013-02-24 01:51:00,
2013-02-23 20:01:00,25.0,21.0,29.98,West,269,3.0,7.0,83,0.00,,,0.00,,2013-02-24 02:01:00,
2013-02-23 20:11:00,25.0,21.0,29.98,West,269,3.0,7.0,83,0.00,,,0.00,,2013-02-24 02:11:00,
2013-02-23 20:21:00,25.0,21.0,29.98,West,272,3.0,6.0,84,0.00,,,0.00,,2013-02-24 02:21:00,
2013-02-23 20:32:00,25.0,21.0,29.98,West,265,3.0,5.0,84,0.00,,,0.00,,2013-02-24 02:32:00,
2013-02-23 20:42:00,25.0,21.0,29.98,West,265,3.0,5.0,84,0.00,,,0.00,,2013-02-24 02:42:00,
2013-02-23 20:52:00,25.0,21.0,29.98,West,265,3.0,5.0,84,0.00,,,0.00,,2013-02-24 02:52:00,
2013-02-23 21:02:00,25.0,21.0,29.99,West,259,5.0,9.0,84,0.00,,,0.00,,2013-02-24 03:02:00,
2013-02-23 21:11:00,25.0,21.0,29.99,West,259,5.0,9.0,84,0.00,,,0.00,,2013-02-24 03:11:00,
2013-02-23 21:21:00,24.0,20.0,29.99,West,263,4.0,8.0,84,0.00,,,0.00,,2013-02-24 03:21:00,
2013-02-23 21:32:00,23.0,19.0,29.99,West,267,4.0,7.0,85,0.00,,,0.00,,2013-02-24 03:32:00,
2013-02-23 21:42:00,23.0,19.0,29.99,West,267,4.0,7.0,85,0.00,,,0.00,,2013-02-24 03:42:00,
2013-02-23 21:52:00,23.0,19.0,29.99,West,279,4.0,6.0,86,0.00,,,0.00,,2013-02-24 03:52:00,
2013-02-23 22:01:00,22.0,18.0,29.99,West,275,5.0,7.0,86,0.00,,,0.00,,2013-02-24 04:01:00,
2013-02-23 22:11:00,22.0,18.0,29.99,West,275,5.0,7.0,86,0.00,,,0.00,,2013-02-24 04:11:00,
2013-02-23 22:21:00,22.0,19.0,29.99,West,277,5.0,8.0,87,0.00,,,0.00,,2013-02-24 04:21:00,
2013-02-23 22:32:00,22.0,18.0,29.99,WSW,249,5.0,8.0,86,0.00,,,0.00,,2013-02-24 04:32:00,
2013-02-23 22:41:00,22.0,18.0,29.99,WSW,249,5.0,8.0,86,0.00,,,0.00,,2013-02-24 04:41:00,
2013-02-23 22:52:00,22.0,18.0,29.99,West,274,4.0,7.0,86,0.00,,,0.00,,2013-02-24 04:52:00,
2013-02-23 23:01:00,22.0,18.0,29.99,West,274,4.0,7.0,86,0.00,,,0.00,,2013-02-24 05:01:00,
2013-02-23 23:11:00,22.0,18.0,29.99,West,274,4.0,7.0,86,0.00,,,0.00,,2013-02-24 05:11:00,
2013-02-23 23:22:00,22.0,18.0,29.99,West,274,4.0,7.0,86,0.00,,,0.00,,2013-02-24 05:22:00,
2013-02-23 23:32:00,23.0,19.0,29.99,WNW,284,3.0,9.0,86,0.00,,,0.00,,2013-02-24 05:32:00,
2013-02-23 23:42:00,23.0,19.0,29.99,WNW,284,3.0,9.0,86,0.00,,,0.00,,2013-02-24 05:42:00,
2013-02-23 23:52:00,23.0,19.0,30.00,WSW,242,5.0,9.0,85,0.00,,,0.00,,2013-02-24 05:52:00,